�������l�o���
Date,Time,MP-1(��Sv/h),MP-2(��Sv/h),MP-3(��Sv/h),MP-4(��Sv/h),MP-5(��Sv/h),MP-6(��Sv/h),MP-7(��Sv/h),MP-8(��Sv/h),����,����(m/s),���J
2021/01/26,00:00,0.663,0.951,0.607,1.201,0.845,0.375,0.666,0.631,�k��,6.3,��
2021/01/26,00:10,0.664,0.948,0.606,1.198,0.845,0.376,0.668,0.631,�k��,6.1,��
2021/01/26,00:20,0.665,0.951,0.606,1.199,0.845,0.376,0.667,0.630,�k��,5.7,��
2021/01/26,00:30,0.665,0.951,0.605,1.202,0.845,0.375,0.668,0.630,�k��,6.5,��
2021/01/26,00:40,0.665,0.952,0.605,1.198,0.845,0.377,0.669,0.630,�k��,5.7,��
2021/01/26,00:50,0.667,0.950,0.605,1.198,0.843,0.376,0.669,0.631,�k��,6.0,��
2021/01/26,01:00,0.667,0.950,0.606,1.201,0.843,0.376,0.668,0.631,�k��,6.5,��
2021/01/26,01:10,0.664,0.951,0.606,1.201,0.844,0.375,0.667,0.631,�k��,6.0,��
2021/01/26,01:20,0.665,0.951,0.605,1.199,0.844,0.376,0.667,0.630,�k��,5.9,��
2021/01/26,01:30,0.664,0.949,0.606,1.200,0.845,0.376,0.667,0.631,�k��,5.3,��
2021/01/26,01:40,0.666,0.950,0.605,1.202,0.844,0.378,0.667,0.630,�k��,5.0,��
2021/01/26,01:50,0.665,0.949,0.607,1.201,0.843,0.378,0.668,0.631,�k��,4.6,��
2021/01/26,02:00,0.664,0.947,0.607,1.198,0.844,0.377,0.670,0.630,�k��,5.0,��
2021/01/26,02:10,0.667,0.950,0.605,1.202,0.844,0.377,0.667,0.630,�k��,5.2,��
2021/01/26,02:20,0.665,0.948,0.605,1.199,0.845,0.376,0.666,0.629,�k��,4.8,��
2021/01/26,02:30,0.664,0.951,0.605,1.199,0.843,0.376,0.669,0.629,�k��,4.4,��
2021/01/26,02:40,0.666,0.949,0.604,1.201,0.844,0.376,0.665,0.629,�k��,4.5,��
2021/01/26,02:50,0.665,0.948,0.605,1.201,0.844,0.376,0.667,0.630,�k��,3.9,��
2021/01/26,03:00,0.665,0.949,0.607,1.200,0.845,0.377,0.668,0.629,�k��,3.6,��
2021/01/26,03:10,0.665,0.950,0.605,1.201,0.843,0.377,0.668,0.630,�k��,4.0,��
2021/01/26,03:20,0.665,0.949,0.605,1.199,0.843,0.378,0.667,0.630,�k�k��,4.0,��
2021/01/26,03:30,0.663,0.950,0.606,1.200,0.845,0.376,0.668,0.630,�k�k��,4.1,��
2021/01/26,03:40,0.664,0.949,0.605,1.200,0.843,0.377,0.667,0.629,�k�k��,3.9,��
2021/01/26,03:50,0.663,0.950,0.607,1.201,0.842,0.376,0.667,0.630,�k�k��,3.6,��
2021/01/26,04:00,0.665,0.949,0.606,1.198,0.844,0.377,0.667,0.631,�k�k��,3.3,��
2021/01/26,04:10,0.666,0.949,0.606,1.202,0.843,0.376,0.668,0.632,�k�k��,3.3,��
2021/01/26,04:20,0.665,0.950,0.606,1.199,0.844,0.376,0.669,0.631,�k�k��,3.9,��
2021/01/26,04:30,0.665,0.949,0.607,1.201,0.843,0.377,0.669,0.630,�k�k��,3.9,��
2021/01/26,04:40,0.665,0.950,0.605,1.199,0.844,0.375,0.667,0.629,�k�k��,4.1,��
2021/01/26,04:50,0.664,0.950,0.605,1.201,0.843,0.377,0.669,0.630,�k�k��,4.2,��
2021/01/26,05:00,0.666,0.947,0.605,1.200,0.844,0.377,0.668,0.630,�k�k��,4.1,��
2021/01/26,05:10,0.667,0.948,0.605,1.198,0.844,0.377,0.666,0.630,�k�k��,4.1,��
2021/01/26,05:20,0.664,0.950,0.603,1.201,0.844,0.377,0.667,0.630,�k�k��,3.4,��
2021/01/26,05:30,0.664,0.949,0.605,1.200,0.843,0.376,0.669,0.630,�k�k��,3.5,��
2021/01/26,05:40,0.665,0.950,0.606,1.199,0.844,0.377,0.666,0.630,�k�k��,3.5,��
2021/01/26,05:50,0.666,0.948,0.605,1.200,0.844,0.377,0.669,0.631,�k�k��,3.8,��
2021/01/26,06:00,0.665,0.949,0.606,1.200,0.843,0.377,0.668,0.630,�k�k��,3.6,��
2021/01/26,06:10,0.667,0.950,0.603,1.202,0.844,0.377,0.669,0.628,�k�k��,4.1,��
2021/01/26,06:20,0.666,0.951,0.605,1.201,0.844,0.376,0.668,0.630,�k�k��,4.6,��
2021/01/26,06:30,0.666,0.950,0.606,1.199,0.844,0.377,0.668,0.631,�k�k��,3.4,��
2021/01/26,06:40,0.666,0.950,0.605,1.199,0.843,0.377,0.669,0.630,�k�k��,3.5,��
2021/01/26,06:50,0.665,0.948,0.606,1.199,0.845,0.378,0.669,0.631,�k�k��,4.4,��
2021/01/26,07:00,0.665,0.950,0.605,1.199,0.841,0.377,0.667,0.631,�k�k��,4.4,��
2021/01/26,07:10,0.665,0.948,0.604,1.199,0.843,0.377,0.668,0.629,�k�k��,4.0,��
2021/01/26,07:20,0.666,0.948,0.606,1.203,0.844,0.376,0.668,0.631,�k�k��,4.5,��
2021/01/26,07:30,0.664,0.951,0.605,1.201,0.844,0.379,0.669,0.631,�k�k��,4.2,��
2021/01/26,07:40,0.665,0.949,0.607,1.201,0.844,0.377,0.667,0.629,�k�k��,4.7,��
2021/01/26,07:50,0.666,0.950,0.605,1.200,0.844,0.376,0.667,0.630,�k�k��,4.7,��
2021/01/26,08:00,0.669,0.949,0.606,1.197,0.844,0.377,0.667,0.631,�k�k��,4.7,��
2021/01/26,08:10,0.666,0.949,0.606,1.201,0.843,0.377,0.668,0.630,�k�k��,5.2,��
2021/01/26,08:20,0.666,0.947,0.606,1.199,0.845,0.377,0.667,0.631,�k�k��,5.1,��
2021/01/26,08:30,0.666,0.947,0.605,1.200,0.843,0.377,0.669,0.630,�k�k��,5.0,��
2021/01/26,08:40,0.666,0.948,0.605,1.202,0.841,0.375,0.667,0.631,�k�k��,4.3,��
2021/01/26,08:50,0.666,0.949,0.605,1.198,0.845,0.376,0.668,0.631,�k�k��,4.6,��
2021/01/26,09:00,0.666,0.948,0.605,1.198,0.842,0.377,0.670,0.631,�k�k��,4.6,��
2021/01/26,09:10,0.669,0.950,0.605,1.199,0.845,0.377,0.671,0.630,�k�k��,3.6,��
2021/01/26,09:20,0.669,0.948,0.605,1.203,0.844,0.377,0.671,0.630,�k�k��,2.3,��
2021/01/26,09:30,0.667,0.948,0.607,1.202,0.845,0.377,0.670,0.631,�k,2.3,��
2021/01/26,09:40,0.667,0.948,0.606,1.202,0.845,0.377,0.671,0.630,�k�k��,1.7,��
2021/01/26,09:50,0.667,0.946,0.606,1.201,0.847,0.377,0.669,0.630,�k,1.5,��
2021/01/26,10:00,0.666,0.948,0.606,1.200,0.846,0.378,0.668,0.631,�k,2.0,��
2021/01/26,10:10,0.666,0.946,0.608,1.202,0.846,0.377,0.668,0.632,�k�k��,2.0,��
2021/01/26,10:20,0.665,0.946,0.605,1.201,0.846,0.378,0.667,0.631,�k,2.0,��
2021/01/26,10:30,0.665,0.944,0.607,1.204,0.847,0.378,0.667,0.629,�k�k��,2.3,��
2021/01/26,10:40,0.666,0.944,0.606,1.202,0.846,0.379,0.667,0.631,�k,2.5,��
2021/01/26,10:50,0.666,0.945,0.607,1.202,0.845,0.379,0.667,0.632,�k�k��,2.6,��
2021/01/26,11:00,0.667,0.945,0.608,1.201,0.847,0.378,0.667,0.631,�k�k��,2.2,��
2021/01/26,11:10,0.669,0.945,0.606,1.202,0.847,0.377,0.666,0.630,�k�k��,2.3,��
2021/01/26,11:20,0.668,0.948,0.606,1.201,0.848,0.377,0.667,0.632,���k��,1.9,��
2021/01/26,11:30,0.668,0.947,0.609,1.201,0.846,0.377,0.666,0.631,���k��,2.3,��
2021/01/26,11:40,0.668,0.951,0.607,1.202,0.848,0.377,0.667,0.630,�k��,2.0,��
2021/01/26,11:50,0.667,0.949,0.608,1.200,0.848,0.378,0.667,0.631,���k��,2.6,��
2021/01/26,12:00,0.667,0.947,0.608,1.200,0.845,0.377,0.668,0.631,���k��,2.6,��
2021/01/26,12:10,0.667,0.949,0.606,1.200,0.847,0.379,0.667,0.633,��,2.3,��
2021/01/26,12:20,0.668,0.949,0.608,1.203,0.848,0.378,0.666,0.632,���쓌,4.7,��
2021/01/26,12:30,0.667,0.949,0.607,1.203,0.846,0.377,0.668,0.630,���쓌,3.3,��
2021/01/26,12:40,0.668,0.952,0.608,1.200,0.847,0.378,0.667,0.632,���쓌,2.3,��
2021/01/26,12:50,0.668,0.949,0.607,1.202,0.847,0.376,0.669,0.632,��,1.9,��
2021/01/26,13:00,0.668,0.948,0.607,1.202,0.848,0.378,0.668,0.632,���k��,1.5,��
2021/01/26,13:10,0.669,0.948,0.607,1.199,0.849,0.378,0.668,0.632,��,2.0,��
2021/01/26,13:20,0.670,0.950,0.608,1.203,0.850,0.378,0.667,0.633,���쓌,0.8,��
2021/01/26,13:30,0.665,0.952,0.608,1.203,0.848,0.379,0.669,0.634,���쓌,1.2,��
2021/01/26,13:40,0.667,0.951,0.608,1.201,0.847,0.377,0.668,0.632,�쓌,1.7,��
2021/01/26,13:50,0.667,0.952,0.607,1.204,0.850,0.380,0.667,0.631,�쓌,2.3,��
2021/01/26,14:00,0.668,0.953,0.609,1.200,0.846,0.379,0.667,0.630,�쓌,1.7,��
2021/01/26,14:10,0.666,0.951,0.610,1.200,0.850,0.379,0.667,0.631,��쓌,2.0,��
2021/01/26,14:20,0.666,0.952,0.607,1.201,0.848,0.378,0.667,0.632,�쓌,0.9,��
2021/01/26,14:30,0.669,0.954,0.608,1.202,0.847,0.378,0.668,0.633,��,1.2,��
2021/01/26,14:40,0.667,0.953,0.607,1.203,0.848,0.378,0.668,0.632,��쓌,2.3,��
2021/01/26,14:50,0.667,0.954,0.607,1.200,0.849,0.378,0.668,0.632,��,2.3,��
2021/01/26,15:00,0.668,0.954,0.608,1.203,0.850,0.378,0.668,0.631,��,2.5,��
2021/01/26,15:10,0.669,0.949,0.608,1.204,0.849,0.378,0.670,0.632,��,2.8,��
2021/01/26,15:20,0.668,0.953,0.608,1.204,0.848,0.378,0.669,0.633,��쓌,3.4,��
2021/01/26,15:30,0.668,0.952,0.608,1.201,0.845,0.378,0.667,0.630,��,2.8,��
2021/01/26,15:40,0.668,0.954,0.607,1.201,0.849,0.379,0.669,0.631,��쓌,3.2,��
2021/01/26,15:50,0.666,0.953,0.609,1.202,0.848,0.377,0.668,0.632,��쓌,3.1,��
2021/01/26,16:00,0.667,0.954,0.609,1.201,0.847,0.379,0.670,0.630,��,2.6,��
2021/01/26,16:10,0.669,0.953,0.607,1.202,0.847,0.378,0.669,0.633,��쐼,3.1,��
2021/01/26,16:20,0.668,0.953,0.609,1.200,0.848,0.380,0.670,0.632,��쐼,2.6,��
2021/01/26,16:30,0.665,0.956,0.609,1.202,0.848,0.378,0.670,0.632,��쐼,2.6,��
2021/01/26,16:40,0.668,0.955,0.608,1.203,0.849,0.378,0.668,0.633,�쐼,2.6,��
2021/01/26,16:50,0.668,0.955,0.610,1.201,0.847,0.378,0.669,0.631,�쐼,1.7,��
2021/01/26,17:00,0.668,0.955,0.606,1.201,0.847,0.380,0.668,0.632,���쐼,1.7,��
2021/01/26,17:10,0.669,0.953,0.609,1.201,0.847,0.380,0.669,0.630,�쐼,1.4,��
2021/01/26,17:20,0.666,0.952,0.609,1.201,0.849,0.379,0.668,0.632,-,CALM,��
2021/01/26,17:30,0.667,0.956,0.607,1.201,0.848,0.378,0.668,0.631,-,CALM,��
2021/01/26,17:40,0.666,0.954,0.607,1.204,0.845,0.380,0.670,0.632,��,1.1,��
2021/01/26,17:50,0.668,0.953,0.609,1.202,0.849,0.378,0.670,0.632,��쐼,0.9,��
2021/01/26,18:00,0.668,0.953,0.608,1.201,0.848,0.379,0.671,0.632,�쐼,0.9,��
2021/01/26,18:10,0.667,0.953,0.609,1.203,0.849,0.377,0.672,0.632,�쐼,0.8,��
2021/01/26,18:20,0.669,0.954,0.607,1.202,0.848,0.379,0.670,0.631,-,CALM,��
2021/01/26,18:30,0.667,0.952,0.608,1.201,0.849,0.378,0.670,0.632,��,1.5,��
2021/01/26,18:40,0.668,0.954,0.606,1.203,0.847,0.379,0.670,0.633,��쓌,1.1,��
2021/01/26,18:50,0.666,0.954,0.607,1.203,0.848,0.378,0.670,0.632,-,CALM,��
2021/01/26,19:00,0.668,0.952,0.609,1.203,0.849,0.379,0.671,0.631,�k�k��,0.6,��
2021/01/26,19:10,0.667,0.951,0.608,1.200,0.847,0.377,0.670,0.631,-,CALM,��
2021/01/26,19:20,0.669,0.955,0.609,1.200,0.848,0.378,0.670,0.632,�쐼,0.6,��
2021/01/26,19:30,0.667,0.954,0.609,1.201,0.849,0.378,0.670,0.630,��쓌,0.6,��
2021/01/26,19:40,0.669,0.953,0.608,1.201,0.848,0.378,0.669,0.630,-,CALM,��
2021/01/26,19:50,0.668,0.953,0.610,1.201,0.847,0.379,0.671,0.631,���k��,0.6,��
2021/01/26,20:00,0.667,0.953,0.608,1.201,0.849,0.379,0.671,0.631,�쓌,0.8,��
2021/01/26,20:10,0.668,0.955,0.608,1.201,0.849,0.379,0.669,0.631,���쓌,0.8,��
2021/01/26,20:20,0.668,0.953,0.607,1.199,0.847,0.380,0.670,0.630,�쓌,0.9,��
2021/01/26,20:30,0.668,0.953,0.608,1.202,0.848,0.379,0.669,0.632,�쓌,1.2,��
2021/01/26,20:40,0.668,0.955,0.610,1.202,0.848,0.378,0.670,0.631,�쓌,1.1,��
2021/01/26,20:50,0.669,0.952,0.609,1.202,0.847,0.379,0.669,0.631,�쓌,1.1,��
2021/01/26,21:00,0.668,0.952,0.609,1.201,0.850,0.379,0.670,0.631,���쓌,2.0,��
2021/01/26,21:10,0.668,0.952,0.607,1.202,0.847,0.380,0.671,0.632,���쓌,1.7,��
2021/01/26,21:20,0.667,0.953,0.609,1.202,0.848,0.378,0.671,0.633,�쓌,1.5,��
2021/01/26,21:30,0.669,0.953,0.609,1.204,0.848,0.379,0.670,0.632,�쓌,1.2,��
2021/01/26,21:40,0.668,0.952,0.609,1.204,0.847,0.379,0.671,0.632,��,0.9,��
2021/01/26,21:50,0.668,0.955,0.610,1.202,0.848,0.380,0.672,0.632,�쐼,0.8,��
2021/01/26,22:00,0.668,0.954,0.609,1.203,0.849,0.379,0.669,0.632,��,0.9,��
2021/01/26,22:10,0.668,0.954,0.610,1.201,0.846,0.379,0.671,0.632,���쐼,0.6,��
2021/01/26,22:20,0.669,0.955,0.610,1.201,0.850,0.379,0.670,0.631,��,0.6,��
2021/01/26,22:30,0.669,0.952,0.608,1.203,0.850,0.379,0.670,0.632,��쐼,0.8,��
2021/01/26,22:40,0.668,0.952,0.611,1.204,0.850,0.378,0.671,0.632,��,2.3,��
2021/01/26,22:50,0.668,0.953,0.608,1.203,0.848,0.379,0.671,0.631,��,1.7,��
2021/01/26,23:00,0.670,0.952,0.610,1.203,0.848,0.380,0.670,0.631,��,2.8,��
2021/01/26,23:10,0.669,0.953,0.609,1.204,0.849,0.379,0.671,0.632,��쓌,2.2,��
2021/01/26,23:20,0.668,0.953,0.607,1.204,0.848,0.379,0.674,0.632,��쓌,2.8,��
2021/01/26,23:30,0.667,0.955,0.608,1.203,0.848,0.379,0.671,0.633,�쓌,3.5,��
2021/01/26,23:40,0.669,0.953,0.608,1.206,0.851,0.380,0.671,0.631,�쓌,3.5,��
2021/01/26,23:50,0.670,0.956,0.607,1.204,0.848,0.379,0.671,0.631,�쓌,3.5,��
